TimeEDT,TemperatureF,Dew PointF,Humidity,Sea Level PressureIn,VisibilityMPH,Wind Direction,Wind SpeedMPH,Gust SpeedMPH,PrecipitationIn,Events,Conditions,WindDirDegrees,DateUTC
12:28 AM,64.4,62.6,94,30.02,1.8,Calm,Calm,-,N/A,,Partly Cloudy,0,2013-07-03 04:28:00
12:37 AM,64.4,62.6,94,30.02,0.5,Calm,Calm,-,N/A,Fog,Fog,0,2013-07-03 04:37:00
12:46 AM,64.4,62.6,94,30.02,2.0,Calm,Calm,-,N/A,,Clear,0,2013-07-03 04:46:00
12:53 AM,64.0,63.0,96,30.00,7.0,Calm,Calm,-,N/A,,Clear,0,2013-07-03 04:53:00
1:02 AM,62.6,62.6,100,30.02,1.5,Calm,Calm,-,N/A,,Clear,0,2013-07-03 05:02:00
1:29 AM,62.6,62.6,100,30.02,0.5,Calm,Calm,-,N/A,Fog,Fog,0,2013-07-03 05:29:00
1:40 AM,62.6,62.6,100,30.02,1.2,Calm,Calm,-,N/A,,Scattered Clouds,0,2013-07-03 05:40:00
1:44 AM,62.6,62.6,100,30.01,3.0,Calm,Calm,-,N/A,,Scattered Clouds,0,2013-07-03 05:44:00
1:53 AM,63.0,62.1,97,30.00,8.0,Calm,Calm,-,N/A,,Partly Cloudy,0,2013-07-03 05:53:00
2:09 AM,62.6,60.8,94,30.01,1.8,Calm,Calm,-,N/A,,Partly Cloudy,0,2013-07-03 06:09:00
2:12 AM,62.6,60.8,94,30.01,0.8,Calm,Calm,-,N/A,,Mist,0,2013-07-03 06:12:00
2:33 AM,62.6,62.6,100,30.01,2.5,Calm,Calm,-,N/A,,Mostly Cloudy,0,2013-07-03 06:33:00
2:45 AM,64.4,64.4,100,30.01,1.0,Calm,Calm,-,N/A,,Mist,0,2013-07-03 06:45:00
2:53 AM,64.9,64.9,100,29.99,0.5,Calm,Calm,-,N/A,Fog,Fog,0,2013-07-03 06:53:00
3:00 AM,64.4,64.4,100,30.01,0.2,South,3.5,-,N/A,Fog,Fog,170,2013-07-03 07:00:00
3:38 AM,64.4,62.6,94,30.00,0.5,Calm,Calm,-,N/A,Fog,Fog,0,2013-07-03 07:38:00
3:53 AM,64.0,64.0,100,29.99,0.5,Calm,Calm,-,N/A,Fog,Fog,0,2013-07-03 07:53:00
4:03 AM,64.4,64.4,100,30.01,1.2,Calm,Calm,-,N/A,,Scattered Clouds,0,2013-07-03 08:03:00
4:12 AM,64.4,62.6,94,30.01,1.0,SE,3.5,-,N/A,,Mist,130,2013-07-03 08:12:00
4:21 AM,64.4,64.4,100,30.01,1.5,SSE,3.5,-,N/A,,Scattered Clouds,150,2013-07-03 08:21:00
4:24 AM,64.4,64.4,100,30.01,0.8,SSE,4.6,-,N/A,,Mist,160,2013-07-03 08:24:00
4:37 AM,64.4,64.4,100,30.02,0.2,SSE,3.5,-,N/A,Fog,Fog,150,2013-07-03 08:37:00
4:53 AM,64.0,64.0,100,30.00,0.2,SE,3.5,-,N/A,Fog,Fog,140,2013-07-03 08:53:00
5:13 AM,62.6,62.6,100,30.02,0.5,SSE,3.5,-,0.01,Fog,Fog,160,2013-07-03 09:13:00
5:36 AM,62.6,62.6,100,30.03,0.5,Calm,Calm,-,0.01,Fog,Fog,0,2013-07-03 09:36:00
5:53 AM,63.0,63.0,100,30.01,1.2,SSE,3.5,-,0.01,,Mostly Cloudy,150,2013-07-03 09:53:00
5:56 AM,62.6,62.6,100,30.03,2.0,SE,3.5,-,N/A,,Mostly Cloudy,140,2013-07-03 09:56:00
6:01 AM,62.6,62.6,100,30.03,4.0,SSE,3.5,-,N/A,,Scattered Clouds,150,2013-07-03 10:01:00
6:53 AM,62.1,62.1,100,30.03,5.0,South,4.6,-,N/A,,Clear,180,2013-07-03 10:53:00
7:06 AM,62.6,62.6,100,30.05,7.0,SSW,5.8,-,N/A,,Partly Cloudy,210,2013-07-03 11:06:00
7:28 AM,62.6,62.6,100,30.06,6.0,SW,4.6,-,N/A,,Mostly Cloudy,220,2013-07-03 11:28:00
7:53 AM,63.0,62.1,97,30.05,5.0,South,4.6,-,N/A,,Overcast,190,2013-07-03 11:53:00
8:17 AM,62.6,62.6,100,30.07,10.0,South,5.8,-,N/A,,Scattered Clouds,180,2013-07-03 12:17:00
8:32 AM,64.4,62.6,94,30.07,10.0,South,6.9,-,N/A,,Mostly Cloudy,190,2013-07-03 12:32:00
8:53 AM,64.0,62.1,93,30.07,10.0,SSW,8.1,-,N/A,,Mostly Cloudy,200,2013-07-03 12:53:00
9:53 AM,66.9,63.0,87,30.09,10.0,South,6.9,-,N/A,,Overcast,190,2013-07-03 13:53:00
10:20 AM,66.2,62.6,88,30.10,10.0,SSW,6.9,-,N/A,,Mostly Cloudy,210,2013-07-03 14:20:00
10:53 AM,69.1,62.1,78,30.09,10.0,SSW,9.2,-,N/A,,Mostly Cloudy,210,2013-07-03 14:53:00
11:53 AM,71.1,62.1,73,30.08,10.0,Variable,6.9,-,N/A,,Overcast,0,2013-07-03 15:53:00
12:18 PM,71.6,62.6,73,30.10,10.0,SSW,10.4,-,N/A,,Overcast,210,2013-07-03 16:18:00
12:53 PM,73.9,63.0,68,30.09,10.0,SSW,10.4,-,N/A,,Mostly Cloudy,210,2013-07-03 16:53:00
1:53 PM,75.0,64.0,69,30.08,10.0,SSW,6.9,-,N/A,,Scattered Clouds,200,2013-07-03 17:53:00
2:53 PM,77.0,63.0,62,30.08,10.0,South,6.9,16.1,N/A,,Mostly Cloudy,180,2013-07-03 18:53:00
3:53 PM,77.0,63.0,62,30.06,10.0,SSW,9.2,16.1,N/A,,Mostly Cloudy,200,2013-07-03 19:53:00
4:53 PM,77.0,62.1,60,30.06,10.0,SW,9.2,-,N/A,,Partly Cloudy,220,2013-07-03 20:53:00
5:53 PM,78.1,63.0,60,30.04,10.0,South,5.8,-,N/A,,Scattered Clouds,170,2013-07-03 21:53:00
6:53 PM,77.0,63.0,62,30.04,10.0,SW,5.8,-,N/A,,Clear,220,2013-07-03 22:53:00
7:53 PM,75.0,64.9,71,30.05,10.0,Calm,Calm,-,N/A,,Partly Cloudy,0,2013-07-03 23:53:00
8:53 PM,73.0,66.0,79,30.06,10.0,South,3.5,-,N/A,,Clear,180,2013-07-04 00:53:00
9:53 PM,68.0,66.9,96,30.06,10.0,Calm,Calm,-,N/A,,Clear,0,2013-07-04 01:53:00
10:53 PM,66.0,64.0,93,30.09,10.0,Calm,Calm,-,N/A,,Clear,0,2013-07-04 02:53:00
11:53 PM,64.0,63.0,96,30.09,8.0,Calm,Calm,-,N/A,,Clear,0,2013-07-04 03:53:00